Location: Gisborne
(38.6530°S, 178.0040°E)
Time: 16:41:56
(UTC+12:00)

Mayak - Pass Details

Date: 24 January 2019
Orbit: 584 x 601 km, 97.6° (Epoch: 20 April)

Event Time Altitude Azimuth Distance (km) Brightness Sun altitude
Exits shadow 22:47:34 32° 114° (ESE) 1,026 -0.2 -22.0°
Drops below altitude 10° 22:51:10 10° 172° (S) 1,948 2.0 -22.4°
Sets 22:53:31 0° 181° (S) 2,861 3.1 -22.7°
